{"data":{"norad_id":57923,"intl_designator":"2023-147L","name":"STARLINK-30440","alt_names":[],"object_type":"PAYLOAD","status":"ACTIVE","operator":null,"country":"US","launch_date":"2023-09-24","launch_site_code":"AFETR","launch_vehicle":null,"mission":null,"orbit_class":"UNKNOWN","rcs_meters":null,"size_class":null,"mass_kg":null,"dimensions":null,"purposes":["comms"],"wikipedia_slug":null,"has_3d_model":false,"image_url":null,"decayed_at":null,"tle_current":{"epoch":"2026-05-24T23:55:30.417312Z","epoch_age_seconds":75321,"freshness":"FRESH","line1":"1 57923U 23147L   26144.99687983  .00000335  00000+0  21708-4 0  9991","line2":"2 57923  43.0010 254.6507 0001182 275.9665  84.1052 15.27577360148294","mean_motion":15.2757736,"eccentricity":0.0001182,"inclination_deg":43.001,"raan_deg":254.6507,"arg_perigee_deg":275.9665,"mean_anomaly_deg":84.1052,"bstar":2.1708e-5,"rev_number":14829,"period_min":94.266911627965,"perigee_km":482.24600802984,"apogee_km":483.86799429171,"semimajor_km":6861.1940011608,"source":"CELESTRAK","updated_at":"2026-05-25T13:38:18.458040Z"}}}